Regional Weather Roundup
Issued by NWS Bismarck, ND

Home | Current Version | Previous Version | Text Only | Print | Product List | Glossary On
Versions: 1 2 3 4 5 6 7 8 9 10 11 12 13 14 15 16 17 18 19 20 21 22 23 24 25 26 27 28 29 30 31 32 33 34 35 36 37 38 39 40 41 42 43 44 45 46 47 48 49 50
167
ASUS43 KBIS 221402
RWRBIS

NWR BROADCAST TEXT
NATIONAL WEATHER SERVICE BISMARCK ND
800 AM CST WED NOV 22 2017

NOTE: "FAIR" INDICATES FEW OR NO CLOUDS BELOW 12,000 FEET WITH NO
SIGNIFICANT WEATHER AND/OR OBSTRUCTIONS TO VISIBILITY.


CITY           SKY/WX    TMP DP  RH WIND       PRES   REMARKS
WILLISTON      CLOUDY    27  18  69 S5        29.82F
MINOT          CLOUDY    23  14  68 SE8       29.86F WCI  14
MINOT AFB      CLOUDY    21  12  67 SE8       29.85F WCI  12
BISMARCK       CLOUDY    24  15  68 SE10      29.97F WCI  14
DICKINSON      CLOUDY    37  25  61 SW9       29.85F
GARRISON         N/A     24  16  71 S10       29.90F WCI  14
HETTINGER ARPT CLOUDY    29  19  66 SW6       29.94F
JAMESTOWN      CLOUDY    15  10  80 S12       30.05F WCI   2
CARRINGTON     FAIR      19  12  73 S17       30.02F WCI   4
HAZEN          CLOUDY    27  16  63 S6G13     29.92F WCI  20
LINTON           N/A     18   7  62 SE9       30.02F WCI   6
MANDAN         CLOUDY    19  10  68 S14G22    29.94F WCI   6
OAKES            N/A     14   9  79 S10       30.14F WCI   1
RUGBY          LGT SNOW  18  12  79 S13       29.94F WCI   4
STANLEY        CLOUDY    25  21  86 S9        29.84F WCI  15
TIOGA          CLOUDY    23  18  80 S10       29.81F WCI  12
WATFORD CITY   PTSUNNY   27  16  63 CALM      29.83F
$$

CITY           SKY/WX    TMP DP  RH WIND       PRES   REMARKS
GRAND FORKS    CLOUDY    16  11  80 S15       30.13F WCI   1
GRAND FORKS AF PTCLDY    16   9  75 S12       30.10F WCI   3
DEVILS LAKE    CLOUDY    17  10  74 S10       30.00F WCI   5
FARGO          CLOUDY    15   9  76 S14       30.18F WCI   0
CANDO          FLURRIES  16  10  79 S12       30.00F WCI   3
CAVALIER       FAIR      14   9  79 S12       30.06F WCI   0
GRAFTON        CLOUDY    14  10  85 S10       30.12F FOG     WCI   1
GWINNER          N/A     16  10  79 S13       30.16S WCI   2
LANGDON        PTSUNNY   16  12  86 S14       29.99F WCI   1
ROLLA          PTSUNNY   14  10  85 S15       29.92F HAZE    WCI  -1
WALHALLA       FAIR      16  10  79 S7        30.05F WCI   6
$$

CITY           SKY/WX    TMP DP  RH WIND       PRES   REMARKS
ABERDEEN       CLOUDY    15  11  83 S13       30.14F WCI   1
MOBRIDGE       CLOUDY    25  16  68 S15       30.01F WCI  13
BUFFALO          N/A     30  21  69 NW3       29.89R
RAPID CITY     CLOUDY    31  23  72 CALM      30.01F
GLASGOW        CLOUDY    29  24  82 E6        29.80S
SIDNEY         CLOUDY    29  24  82 S12       29.84F WCI  19
WOLF POINT     CLOUDY    20  12  71 CALM      29.83F
GLENDIVE       CLOUDY    30  26  85 S14       29.88S WCI  19
MILES CITY     CLOUDY    34  30  85 SW9       29.92F
BAKER          CLOUDY    39  31  72 W9        29.92F
$$

CITY           SKY/WX    TMP DP  RH WIND       PRES   REMARKS
BILLINGS       CLOUDY    47  34  60 W23       30.05R
GREAT FALLS    CLOUDY    55  39  54 SW24      29.98R
REGINA         MOCLDY    16  12  86 SE12      29.78F WCI   3
$$





USA.gov is the U.S. government's official web portal to all federal, state and local government web resources and services.